TimeEST,TemperatureF,Dew PointF,Humidity,Sea Level PressureIn,VisibilityMPH,Wind Direction,Wind SpeedMPH,Gust SpeedMPH,PrecipitationIn,Events,Conditions,WindDirDegrees,DateUTC
12:54 AM,21.0,6.1,53,29.86,-9999.0,Variable,4.6,-,N/A,,Unknown,0,2013-01-22 05:54:00
1:54 AM,19.9,6.1,55,29.89,-9999.0,Variable,3.5,-,0.02,,Unknown,0,2013-01-22 06:54:00
2:54 AM,19.0,7.0,59,29.90,-9999.0,Variable,4.6,-,N/A,,Unknown,0,2013-01-22 07:54:00
3:54 AM,18.0,9.0,68,29.92,-9999.0,Variable,3.5,-,N/A,,Unknown,0,2013-01-22 08:54:00
4:00 AM,-9999,-9999,N/A,-9999,-9999.0,North,-9999.0,-,N/A,,Unknown,0,2013-01-22 09:00:00
4:54 AM,17.1,9.0,71,29.94,-9999.0,Variable,3.5,-,N/A,,Unknown,0,2013-01-22 09:54:00
5:54 AM,16.0,9.0,74,29.99,-9999.0,Calm,Calm,-,N/A,,Unknown,0,2013-01-22 10:54:00
6:54 AM,15.1,8.1,74,30.01,-9999.0,Variable,6.9,-,N/A,,Unknown,0,2013-01-22 11:54:00
7:54 AM,15.1,8.1,74,30.03,-9999.0,Calm,Calm,-,N/A,,Unknown,0,2013-01-22 12:54:00
8:54 AM,16.0,1.0,52,30.06,-9999.0,NW,9.2,-,N/A,,Unknown,310,2013-01-22 13:54:00
9:54 AM,17.1,-2.9,41,30.08,-9999.0,Variable,5.8,-,N/A,,Unknown,0,2013-01-22 14:54:00
10:54 AM,16.0,-5.1,39,30.08,-9999.0,Variable,3.5,18.4,N/A,,Unknown,0,2013-01-22 15:54:00
11:54 AM,17.1,-7.1,34,30.06,-9999.0,NW,9.2,17.3,N/A,,Unknown,320,2013-01-22 16:54:00
12:54 PM,18.0,-7.1,33,30.05,-9999.0,Variable,5.8,24.2,N/A,,Unknown,0,2013-01-22 17:54:00
1:54 PM,17.1,-4.0,39,30.06,-9999.0,Variable,6.9,18.4,N/A,,Unknown,0,2013-01-22 18:54:00
2:54 PM,16.0,-0.9,47,30.07,-9999.0,NW,10.4,18.4,N/A,,Unknown,310,2013-01-22 19:54:00
3:54 PM,16.0,-0.0,49,30.10,-9999.0,Variable,6.9,-,N/A,,Unknown,0,2013-01-22 20:54:00
4:54 PM,14.0,-0.0,54,30.13,-9999.0,Calm,Calm,-,N/A,,Unknown,0,2013-01-22 21:54:00
5:54 PM,14.0,-0.0,54,30.16,-9999.0,Calm,Calm,-,N/A,,Unknown,0,2013-01-22 22:54:00
6:54 PM,12.9,1.9,62,30.18,-9999.0,Variable,3.5,-,N/A,,Unknown,0,2013-01-22 23:54:00
7:54 PM,12.9,-2.0,51,30.20,-9999.0,Variable,4.6,16.1,N/A,,Unknown,0,2013-01-23 00:54:00
8:54 PM,12.0,-2.9,51,30.22,-9999.0,Variable,4.6,-,N/A,,Unknown,0,2013-01-23 01:54:00
9:54 PM,10.9,-7.1,44,30.22,-9999.0,Calm,Calm,-,N/A,,Unknown,0,2013-01-23 02:54:00
10:54 PM,10.0,-8.0,44,30.24,-9999.0,Variable,3.5,-,N/A,,Unknown,0,2013-01-23 03:54:00
11:54 PM,10.0,-7.1,46,30.22,-9999.0,Variable,3.5,-,N/A,,Unknown,0,2013-01-23 04:54:00